Date,TemperatureHighF,TemperatureAvgF,TemperatureLowF,DewpointHighF,DewpointAvgF,DewpointLowF,HumidityHigh,HumidityAvg,HumidityLow,PressureMaxIn,PressureMinIn,WindSpeedMaxMPH,WindSpeedAvgMPH,GustSpeedMaxMPH,PrecipitationSumIn
2013-4-1,80.2,71.8,64.4,71.3,68.9,64.1,99,91,72,29.90,29.79,12,4,0,0.00
2013-4-2,82.2,73.5,69.4,73.5,70.8,69.1,99,92,74,29.89,29.64,10,5,0,0.01
2013-4-3,78.4,67.5,56.7,70.8,62.1,51.9,99,84,62,30.02,29.69,12,5,0,0.01
2013-4-4,78.8,63.4,54.7,52.5,49.4,45.6,87,64,33,30.08,29.92,10,5,0,0.00
2013-4-5,73.8,60.2,48.7,57.1,50.9,45.5,90,73,47,30.17,29.97,11,4,0,0.00
2013-4-6,81.3,70.2,59.9,63.7,61.2,57.0,93,75,52,29.98,29.76,13,5,0,0.00
2013-4-7,83.3,71.8,65.1,67.4,65.5,63.6,96,82,58,29.83,29.67,14,6,0,0.00
2013-4-8,82.8,74.0,69.4,71.8,70.0,67.4,97,88,69,29.72,29.52,16,8,0,0.00
2013-4-9,86.9,76.4,70.3,74.3,71.8,69.3,97,87,64,29.62,29.43,17,8,0,0.00
2013-4-10,88.2,69.8,58.8,75.8,64.8,50.9,97,85,61,29.72,29.50,16,7,0,0.00
2013-4-11,75.7,60.6,48.6,52.6,47.0,41.4,95,65,34,29.86,29.66,13,6,0,0.25
2013-4-12,79.9,63.8,48.7,63.0,57.1,48.2,99,81,54,29.86,29.74,12,4,0,0.00
2013-4-13,81.3,70.4,62.4,66.0,63.6,60.6,99,81,56,29.84,29.60,14,5,0,0.00
2013-4-14,91.8,76.1,65.8,73.9,69.8,64.9,99,83,53,29.69,29.53,15,4,0,0.00
2013-4-15,87.8,77.5,71.1,72.7,71.4,69.6,98,83,60,29.72,29.55,14,7,0,0.00
2013-4-16,80.8,75.4,72.9,74.8,72.9,71.1,99,92,79,29.78,29.63,14,6,0,0.00
2013-4-17,84.0,76.5,73.2,76.7,74.4,72.9,99,94,77,29.76,29.51,14,6,0,0.00
2013-4-18,83.7,70.2,59.7,77.2,64.8,48.7,99,84,58,29.94,29.50,14,6,0,0.00
2013-4-19,76.6,61.2,51.1,48.7,40.0,31.6,80,49,20,30.21,29.94,13,4,0,0.00
2013-4-20,77.5,62.5,45.0,55.6,47.7,42.7,96,64,32,30.12,29.91,14,4,0,0.00
2013-4-21,86.2,71.5,58.5,65.3,60.0,55.0,92,69,41,29.99,29.87,12,4,0,0.00
2013-4-22,87.8,74.0,66.2,68.5,66.8,64.2,96,80,52,29.98,29.78,12,4,0,0.00
2013-4-23,86.0,74.4,68.9,72.8,70.4,68.0,98,88,65,29.85,29.68,16,6,0,0.00
2013-4-24,73.9,58.8,50.5,72.7,53.6,47.8,99,84,68,30.10,29.84,14,5,0,0.03
2013-4-25,66.9,63.3,60.8,66.6,57.3,50.9,99,82,63,30.16,30.02,9,4,0,0.23
2013-4-26,80.4,73.5,67.3,73.9,71.3,67.0,99,93,80,30.07,29.89,14,5,0,0.01
2013-4-27,83.7,75.8,72.1,74.5,72.2,71.3,99,89,73,29.99,29.78,13,5,0,0.00
2013-4-28,79.2,71.7,66.2,72.5,69.4,65.5,99,93,80,29.93,29.71,19,3,0,0.40
2013-4-29,86.2,73.7,66.6,73.3,70.1,66.3,99,90,62,29.85,29.64,8,3,0,0.87
2013-4-30,87.8,74.9,63.7,74.3,70.1,63.4,99,86,62,29.73,29.57,11,4,0,0.41